AAUSAT CUBESAT 2

Satellite information

Favourite Embed

Satellite Type and Status

PAYLOADDECAYED

Key statistics

Satellite AAUSAT CUBESAT 2 at a glance.

Uptime

6238

Days in orbit

Revolutions

≈ 16.3

Per day

Orbit

SSO

Sun Synchronous Orbit

Inclination

97.6

Latest

Satellite identification and parameters

Extended collection of information and parameters for AAUSAT CUBESAT 2.

Object identification

Identified? True

Debris? False

Object name: AAUSAT CUBESAT 2

International designator: 2008-021F

Object number (NORAD): 32788

Object ID (CCSDS): 32788

Country: DENMARK (DEN)

Current information (Y/N): Y

RCS size: SMALL

Orbital parameters

Decay date: May 27, 2025

Period: 88.188 minutes

Inclination: 97.5714 deg

SMA: 6562.961 km

Apoapsis: 191.705 km

Periapsis: 177.946 km

RAAN: 139.5734 deg

Eccentricy: 0.0010482

Argument of periapsis: 221.9933 deg

Mean anomaly: 138.0559 deg

Mean motion: 16.32875487 rev/day

Mean motion (dot): 0.081586 rev/day2

B* drag term: 0.0014044 1/REarth

Two-line elements (TLE)

Creation date: May 20, 2025, 6:25 p.m.

Reference frame: TEME

Reference center: EARTH

Epoch: May 19, 2025, 11:17 p.m. UTC

TLE line 0: 0 AAUSAT CUBESAT 2

TLE line 1: 1 32788U 08021F 25139.97047148 .08158600 26426-5 14044-2 0 9997

TLE line 2: 2 32788 97.5714 139.5734 0010482 221.9933 138.0559 16.32875487930171

Live tracking on map

Satellite AAUSAT CUBESAT 2 has decayed and is no longer in orbit. No tracking available.

In-orbit conjunctions

Satellite AAUSAT CUBESAT 2 has decayed and is no longer in orbit. No conjunctions available.

Associated space launch

Indian Earth observation satellite. Launched alongside 9 nanosatellites.

AAUSAT CUBESAT 2 was lifted into orbit during the mission ‘PSLV | Cartosat 2A’, on board a PSLV space rocket.

The launch took place on April 28, 2008, 3:53 a.m. from Satish Dhawan Space Centre Second Launch Pad.

For more information about the launch, click the button.

Launch to space PSLV | Cartosat 2A
PSLV | Cartosat 2A

Agency: N/A

Status: Launch Successful

Launch date: April 28, 2008, 3:53 a.m. UTC

Rocket: PSLV

Launch pad: Satish Dhawan Space Centre Second Launch Pad

Location: Satish Dhawan Space Centre, India

...

Latest news about this satellite

There are no fresh news available about this satellite. Check back as we update our databases every day.


Newsletter sign-up

Weekly statistics, charts and insights to help you stay on top of the space industry.